Weather History for Westhampton Beach, NY

Change the Weather History Date:

Wednesday, February 13, 2013

  Actual Average Record
Temperature  
Mean Temperature 30 °F -  
Max Temperature 41 °F 38 °F 46 °F (1998)
Min Temperature 18 °F 20 °F 9 °F (2000)
Degree Days  
Heating Degree Days 36    
Moisture  
Dew Point 22 °F    
Average Humidity 69    
Maximum Humidity 92    
Minimum Humidity 49    
Precipitation  
Precipitation 0.01 in - - ()
Sea Level Pressure  
Sea Level Pressure 29.83 in    
Wind  
Wind Speed 3 mph (North)    
Max Wind Speed 8 mph    
Max Gust Speed -    
Visibility 9 miles    
Events Snow    
Averages and records for this station are not official NWS values.
T = Trace of Precipitation, MM = Missing Value Source: NWS Daily Summary

Daily Weather History Graph

Daily Weather History Graph

Search for Another Location

Airport:

Trip Planner

Search our weather history database for the weather conditions in past years. The results will help you decide how hot, cold, wet, or windy it might be!

Date:

Astronomy

Feb. 13, 2013 Rise Set
Actual Time 6:46 AM EST 5:23 PM EST
Civil Twilight 6:18 AM EST 5:51 PM EST
Nautical Twilight 5:46 AM EST 6:23 PM EST
Astronomical Twilight 5:14 AM EST 6:55 PM EST
Moon 8:12 AM EST (2/13) 9:25 PM EST (2/13)
Length of Visible Light 11h 32m
Length of Day
10h 36m
Waxing Crescent, 13% of the Moon is Illuminated
Feb 13
Waxing Crescent
Feb 17
First Quarter
Feb 25
Full
Mar 4
Last Quarter
Mar 11
New

Hourly Weather History & Observations

Time (EST) Temp. Windchill Dew Point Humidity Pressure Visibility Wind Dir Wind Speed Gust Speed Precip Events Conditions
12:53 AM 32.0 °F 24.8 °F 21.9 °F 66% 29.93 in 10.0 mi West 8.1 mph - N/A   Clear
1:53 AM 25.0 °F - 18.0 °F 75% 29.95 in 10.0 mi Calm Calm - N/A   Clear
2:53 AM 24.1 °F - 18.0 °F 77% 29.95 in 10.0 mi Calm Calm - N/A   Clear
3:53 AM 21.9 °F - 18.0 °F 85% 29.94 in 10.0 mi Calm Calm - N/A   Clear
4:53 AM 19.9 °F 13.4 °F 16.0 °F 85% 29.91 in 10.0 mi NW 4.6 mph - N/A   Clear
5:53 AM 18.0 °F - 15.1 °F 88% 29.92 in 10.0 mi Calm Calm - N/A   Clear
6:53 AM 18.0 °F - 14.0 °F 84% 29.93 in 10.0 mi Calm Calm - N/A   Clear
7:53 AM 23.0 °F - 21.0 °F 92% 29.94 in 10.0 mi Calm Calm - N/A   Clear
8:53 AM 34.0 °F - 28.0 °F 79% 29.91 in 10.0 mi Calm Calm - N/A   Clear
9:53 AM 39.0 °F 36.8 °F 21.0 °F 49% 29.90 in 10.0 mi North 3.5 mph - N/A   Clear
10:53 AM 39.0 °F 35.7 °F 21.0 °F 49% 29.90 in 10.0 mi WSW 4.6 mph - N/A   Clear
11:53 AM 39.0 °F 34.0 °F 21.0 °F 49% 29.89 in 10.0 mi Variable 6.9 mph - N/A   Clear
12:53 PM 39.0 °F 36.8 °F 21.0 °F 49% 29.86 in 10.0 mi Variable 3.5 mph - N/A   Clear
1:53 PM 41.0 °F 36.4 °F 23.0 °F 49% 29.82 in 10.0 mi North 6.9 mph - N/A   Clear
2:53 PM 39.9 °F 35.8 °F 23.0 °F 51% 29.80 in 10.0 mi SE 5.8 mph - N/A   Clear
3:53 PM 37.9 °F 34.4 °F 23.0 °F 55% 29.80 in 10.0 mi South 4.6 mph - N/A   Clear
4:53 PM 37.9 °F - 23.0 °F 55% 29.77 in 10.0 mi Calm Calm - N/A   Clear
5:53 PM 32.0 °F - 21.9 °F 66% 29.75 in 10.0 mi Calm Calm - N/A   Clear
6:53 PM 32.0 °F 28.7 °F 24.1 °F 73% 29.73 in 10.0 mi East 3.5 mph - N/A   Clear
7:53 PM 35.1 °F - 25.0 °F 67% 29.73 in 10.0 mi Calm Calm - N/A   Overcast
8:53 PM 35.1 °F - 26.1 °F 70% 29.72 in 10.0 mi Calm Calm - N/A   Overcast
9:53 PM 34.0 °F - 26.1 °F 73% 29.71 in 10.0 mi Calm Calm - N/A   Overcast
10:53 PM 34.0 °F 28.8 °F 26.1 °F 73% 29.71 in 6.0 mi NNW 5.8 mph - 0.00 in Snow Light Snow
11:00 PM 33.8 °F 30.8 °F 26.6 °F 75% 29.71 in 5.0 mi NNW 3.5 mph - 0.00 in Snow Light Snow
11:30 PM 33.8 °F 28.6 °F 26.6 °F 75% 29.72 in 1.8 mi North 5.8 mph - 0.00 in Snow Light Snow
11:37 PM 33.8 °F 29.6 °F 26.6 °F 75% 29.72 in 1.0 mi North 4.6 mph - 0.00 in Snow Light Snow
11:53 PM 33.1 °F 26.1 °F 28.0 °F 82% 29.72 in 1.5 mi NNE 8.1 mph - 0.01 in Snow Light Snow